Tracking 30142 objects as of 21-Jan-2025
HD Live streaming from Space Station
objects crossing your sky now

COSMOS 1275 DEB

Track COSMOS 1275 DEB now!
10-day predictions


NORAD ID: 42189
Int'l Code: 1981-053TD
Perigee: 910.5 km
Apogee: 1,096.3 km
Inclination: 83.0 °
Period: 105.0 minutes
Semi major axis: 7374 km
RCS: Unknown
Launch date: June 4, 1981
Source: Commonwealth of Independent States (former USSR) (CIS)
Launch site: PLESETSK MISSILE AND SPACE COMPLEX (PKMTR)

Note: This is SATELLITE DEBRIS
Your satellite tracking list
Your tracking list is empty




NASA's NSSDC Master Catalog

Two Line Element Set (TLE):
1 42189U 81053TD  25021.04705719  .00002388  00000-0  25167-2 0  9998
2 42189  83.0202 305.8339 0126020  27.8073 332.9742 13.70918145538779
Source of the keplerian elements: AFSPC